| time (UTC) | temp C | wind direction | speed KPH | gust KPH | rain 1hr cm | rain 24hr cm | rain mn cm | humidity % | barometer mb |
| 20260503185344 | 12 | 227 | 8.0 | 37.0 | 0.00 | 0.05 | 0.05 | 46 | 1009.5 |
| 20260503184843 | 12 | 245 | 16.1 | 37.0 | 0.00 | 0.05 | 0.05 | 45 | 1009.3 |
| 20260503184347 | 12 | 213 | 16.1 | 32.2 | 0.00 | 0.05 | 0.05 | 45 | 1009.4 |
| 20260503183835 | 12 | 206 | 9.7 | 25.7 | 0.00 | 0.05 | 0.05 | 47 | 1009.5 |
| 20260503183358 | 12 | 248 | 8.0 | 25.7 | 0.00 | 0.05 | 0.05 | 45 | 1009.6 |
| 20260503182846 | 12 | 196 | 8.0 | 29.0 | 0.00 | 0.05 | 0.05 | 47 | 1009.6 |
| 20260503182344 | 12 | 273 | 9.7 | 29.0 | 0.00 | 0.05 | 0.05 | 45 | 1009.7 |
| 20260503181833 | 12 | 195 | 8.0 | 25.7 | 0.00 | 0.05 | 0.05 | 47 | 1009.7 |
| 20260503181353 | 12 | 246 | 12.9 | 25.7 | 0.00 | 0.05 | 0.05 | 48 | 1009.8 |
| 20260503180847 | 12 | 204 | 11.3 | 20.9 | 0.00 | 0.05 | 0.05 | 48 | 1009.8 |
| 20260503180330 | 12 | 251 | 8.0 | 25.7 | 0.00 | 0.05 | 0.05 | 46 | 1009.8 |
| 20260503175838 | 12 | 206 | 4.8 | 16.1 | 0.00 | 0.05 | 0.05 | 48 | 1009.9 |
| 20260503175331 | 11 | 232 | 8.0 | 27.4 | 0.00 | 0.05 | 0.05 | 46 | 1010.0 |
| 20260503174842 | 11 | 249 | 11.3 | 27.4 | 0.00 | 0.05 | 0.05 | 43 | 1010.2 |
| 20260503174352 | 12 | 250 | 11.3 | 25.7 | 0.00 | 0.05 | 0.05 | 50 | 1010.2 |
| 20260503173853 | 11 | 301 | 12.9 | 25.7 | 0.00 | 0.05 | 0.05 | 41 | 1010.3 |
| 20260503173340 | 11 | 238 | 8.0 | 27.4 | 0.00 | 0.05 | 0.05 | 43 | 1010.5 |
| 20260503172905 | 11 | 205 | 14.5 | 33.8 | 0.00 | 0.05 | 0.05 | 43 | 1010.6 |
| 20260503172336 | 11 | 226 | 11.3 | 33.8 | 0.00 | 0.05 | 0.05 | 42 | 1010.6 |
| 20260503171855 | 11 | 200 | 12.9 | 24.1 | 0.00 | 0.05 | 0.05 | 43 | 1010.7 |
| 20260503171411 | 10 | 243 | 8.0 | 16.1 | 0.00 | 0.05 | 0.05 | 49 | 1010.7 |
| 20260503170831 | 10 | 280 | 8.0 | 16.1 | 0.00 | 0.05 | 0.05 | 46 | 1010.8 |
| 20260503170405 | 11 | 238 | 6.4 | 17.7 | 0.00 | 0.05 | 0.05 | 50 | 1010.8 |
| 20260503150837 | 8 | 56 | 3.2 | 22.5 | 0.00 | 0.05 | 0.05 | 60 | 1011.9 |
| 20260503150345 | 8 | 263 | 9.7 | 19.3 | 0.00 | 0.05 | 0.05 | 61 | 1011.8 |
| 20260503131343 | 6 | 241 | 9.7 | 19.3 | 0.00 | 0.05 | 0.05 | 71 | 1012.0 |
| 20260503130858 | 6 | 244 | 6.4 | 22.5 | 0.00 | 0.05 | 0.05 | 70 | 1012.1 |
| 20260503130332 | 6 | 205 | 11.3 | 22.5 | 0.00 | 0.05 | 0.05 | 71 | 1012.0 |
| 20260503110407 | 0 | 214 | 1.6 | 4.8 | 0.00 | 0.00 | 0.00 | 94 | 1011.7 |
| 20260503072857 | 0 | 235 | 3.2 | 11.3 | 0.00 | 0.00 | 0.00 | 94 | 1011.9 |
| 20260503072352 | 0 | 229 | 3.2 | 4.8 | 0.00 | 0.00 | 0.00 | 94 | 1011.9 |
| 20260503071905 | 0 | 229 | 1.6 | 6.4 | 0.00 | 0.00 | 0.00 | 94 | 1011.9 |
| 20260503071353 | 0 | 243 | 3.2 | 6.4 | 0.00 | 0.00 | 0.00 | 94 | 1011.9 |
| 20260503070855 | 0 | 253 | 3.2 | 8.0 | 0.00 | 0.00 | 0.00 | 94 | 1011.9 |
| 20260503070352 | 0 | 245 | 3.2 | 8.0 | 0.00 | 0.00 | 0.00 | 94 | 1012.0 |
| 20260503060336 | 0 | 225 | 4.8 | 6.4 | 0.00 | 0.00 | 0.00 | 93 | 1012.3 |
| 20260503054850 | 0 | 265 | 3.2 | 6.4 | 0.00 | 0.00 | 0.00 | 93 | 1012.3 |
| 20260503054353 | 0 | 243 | 3.2 | 6.4 | 0.00 | 0.00 | 0.00 | 93 | 1012.3 |
| 20260503053844 | 0 | 244 | 3.2 | 9.7 | 0.00 | 0.00 | 0.00 | 93 | 1012.3 |
| 20260503053342 | 0 | 248 | 3.2 | 9.7 | 0.00 | 0.00 | 0.00 | 93 | 1012.4 |
| 20260503052837 | 0 | 236 | 3.2 | 8.0 | 0.00 | 0.00 | 0.00 | 93 | 1012.4 |
| 20260503052355 | 0 | 233 | 3.2 | 6.4 | 0.00 | 0.00 | 0.00 | 93 | 1012.5 |
| 20260503051901 | 0 | 244 | 3.2 | 6.4 | 0.00 | 0.00 | 0.00 | 93 | 1012.5 |
| 20260503051353 | 0 | 240 | 3.2 | 6.4 | 0.00 | 0.00 | 0.00 | 93 | 1012.5 |
| 20260503050850 | 0 | 229 | 3.2 | 6.4 | 0.00 | 0.00 | 0.00 | 93 | 1012.7 |
| 20260503050353 | 0 | 246 | 3.2 | 4.8 | 0.00 | 0.00 | 0.00 | 93 | 1012.5 |
| 20260503045900 | 0 | 246 | 3.2 | 9.7 | 0.00 | 0.00 | 0.00 | 93 | 1012.6 |
| 20260503045412 | 0 | 237 | 3.2 | 9.7 | 0.00 | 0.00 | 0.00 | 93 | 1012.7 |
| 20260503044838 | 0 | 216 | 3.2 | 6.4 | 0.00 | 0.00 | 0.00 | 93 | 1012.7 |
| 20260503044336 | 1 | 227 | 3.2 | 4.8 | 0.00 | 0.00 | 0.00 | 93 | 1012.7 |
| 20260503043836 | 0 | 227 | 3.2 | 4.8 | 0.00 | 0.00 | 0.00 | 93 | 1012.6 |
| 20260503043337 | 1 | 220 | 3.2 | 6.4 | 0.00 | 0.00 | 0.00 | 93 | 1012.8 |
| 20260503042838 | 1 | 219 | 3.2 | 6.4 | 0.00 | 0.00 | 0.00 | 93 | 1012.7 |
| 20260503042346 | 1 | 232 | 3.2 | 6.4 | 0.00 | 0.00 | 0.00 | 93 | 1012.8 |
| 20260503041840 | 1 | 249 | 3.2 | 4.8 | 0.00 | 0.00 | 0.00 | 93 | 1012.8 |
| 20260503041342 | 1 | 249 | 3.2 | 4.8 | 0.00 | 0.00 | 0.00 | 93 | 1012.8 |
| 20260503040859 | 1 | 249 | 1.6 | 4.8 | 0.00 | 0.00 | 0.00 | 93 | 1012.9 |
| 20260503040334 | 1 | 249 | 3.2 | 4.8 | 0.00 | 0.00 | 0.00 | 93 | 1012.9 |
| 20260503035846 | 1 | 229 | 1.6 | 4.8 | 0.00 | 0.00 | 0.00 | 93 | 1012.9 |
| 20260503035337 | 1 | 229 | 1.6 | 4.8 | 0.00 | 0.00 | 0.00 | 93 | 1012.9 |
| 20260503034854 | 1 | 215 | 1.6 | 4.8 | 0.00 | 0.00 | 0.00 | 93 | 1012.8 |
| 20260503034408 | 1 | 244 | 1.6 | 4.8 | 0.00 | 0.00 | 0.00 | 93 | 1012.9 |
| 20260503033837 | 1 | 244 | 1.6 | 4.8 | 0.00 | 0.00 | 0.00 | 93 | 1013.0 |
| 20260503033336 | 1 | 245 | 0.0 | 3.2 | 0.00 | 0.00 | 0.00 | 93 | 1012.9 |
| 20260503032855 | 1 | 244 | 0.0 | 0.0 | 0.00 | 0.00 | 0.00 | 93 | 1012.8 |
| 20260503032335 | 1 | 244 | 0.0 | 0.0 | 0.00 | 0.00 | 0.00 | 92 | 1012.9 |
| 20260503031850 | 1 | 244 | 0.0 | 0.0 | 0.00 | 0.00 | 0.00 | 92 | 1012.8 |
| 20260503031351 | 1 | 244 | 0.0 | 1.6 | 0.00 | 0.00 | 0.00 | 92 | 1012.9 |
| 20260503030906 | 1 | 244 | 1.6 | 1.6 | 0.00 | 0.00 | 0.00 | 92 | 1012.9 |
| 20260503030343 | 1 | 245 | 0.0 | 1.6 | 0.00 | 0.00 | 0.00 | 91 | 1013.0 |
| 20260503025913 | 1 | 244 | 0.0 | 4.8 | 0.00 | 0.00 | 0.00 | 91 | 1012.9 |
| 20260503025413 | 1 | 245 | 1.6 | 4.8 | 0.00 | 0.00 | 0.00 | 91 | 1013.0 |
| 20260503024843 | 1 | 194 | 0.0 | 3.2 | 0.00 | 0.00 | 0.00 | 90 | 1013.0 |
| 20260503024339 | 1 | 194 | 1.6 | 3.2 | 0.00 | 0.00 | 0.00 | 90 | 1013.1 |
| 20260503023855 | 1 | 194 | 0.0 | 4.8 | 0.00 | 0.00 | 0.00 | 89 | 1013.1 |
| 20260503023336 | 1 | 194 | 3.2 | 11.3 | 0.00 | 0.00 | 0.00 | 88 | 1013.2 |
| 20260503022858 | 1 | 242 | 6.4 | 11.3 | 0.00 | 0.00 | 0.00 | 88 | 1013.4 |
| 20260503022338 | 1 | 207 | 4.8 | 6.4 | 0.00 | 0.00 | 0.00 | 88 | 1013.4 |
| 20260503021855 | 1 | 233 | 3.2 | 6.4 | 0.00 | 0.00 | 0.00 | 88 | 1013.4 |
| 20260503021347 | 1 | 224 | 1.6 | 4.8 | 0.00 | 0.00 | 0.00 | 87 | 1013.4 |
| 20260503020842 | 1 | 243 | 3.2 | 4.8 | 0.00 | 0.00 | 0.00 | 87 | 1013.4 |
| 20260503020343 | 1 | 240 | 1.6 | 4.8 | 0.00 | 0.00 | 0.00 | 86 | 1013.4 |
| 20260503015850 | 2 | 240 | 1.6 | 6.4 | 0.00 | 0.00 | 0.00 | 85 | 1013.5 |
| 20260503015351 | 2 | 247 | 3.2 | 11.3 | 0.00 | 0.00 | 0.00 | 85 | 1013.5 |
| 20260503014844 | 2 | 241 | 3.2 | 8.0 | 0.00 | 0.00 | 0.00 | 85 | 1013.4 |
| 20260503014335 | 2 | 232 | 3.2 | 6.4 | 0.00 | 0.00 | 0.00 | 85 | 1013.4 |
| 20260503013837 | 2 | 232 | 3.2 | 11.3 | 0.00 | 0.00 | 0.00 | 85 | 1013.3 |
| 20260503013338 | 2 | 232 | 4.8 | 11.3 | 0.00 | 0.00 | 0.00 | 84 | 1013.2 |
| 20260503012858 | 2 | 244 | 3.2 | 9.7 | 0.00 | 0.00 | 0.00 | 84 | 1013.2 |
| 20260503012337 | 2 | 216 | 3.2 | 6.4 | 0.00 | 0.00 | 0.00 | 84 | 1013.2 |
| 20260503011853 | 2 | 272 | 3.2 | 4.8 | 0.00 | 0.00 | 0.00 | 84 | 1013.2 |
| 20260503011358 | 2 | 229 | 1.6 | 4.8 | 0.00 | 0.00 | 0.00 | 84 | 1013.2 |
| 20260503010859 | 2 | 229 | 1.6 | 6.4 | 0.00 | 0.00 | 0.00 | 84 | 1013.2 |
| 20260503010334 | 2 | 229 | 3.2 | 9.7 | 0.00 | 0.00 | 0.00 | 84 | 1013.2 |
| 20260503005905 | 2 | 225 | 4.8 | 9.7 | 0.00 | 0.00 | 0.00 | 84 | 1013.1 |
| 20260503005340 | 2 | 222 | 3.2 | 6.4 | 0.00 | 0.00 | 0.00 | 83 | 1013.1 |
| 20260503004841 | 2 | 244 | 3.2 | 4.8 | 0.00 | 0.00 | 0.00 | 82 | 1013.0 |
| 20260503004348 | 2 | 244 | 3.2 | 8.0 | 0.00 | 0.00 | 0.00 | 82 | 1013.0 |
| 20260503003836 | 2 | 244 | 0.0 | 11.3 | 0.00 | 0.00 | 0.00 | 81 | 1013.0 |
| 20260503003336 | 2 | 228 | 6.4 | 11.3 | 0.00 | 0.00 | 0.00 | 81 | 1012.9 |
| 20260503002856 | 2 | 269 | 0.0 | 12.9 | 0.00 | 0.00 | 0.00 | 81 | 1012.9 |
| 20260503002348 | 2 | 254 | 4.8 | 12.9 | 0.00 | 0.00 | 0.00 | 81 | 1013.0 |
| 20260503001842 | 2 | 227 | 3.2 | 8.0 | 0.00 | 0.00 | 0.00 | 80 | 1013.0 |
| 20260503001342 | 2 | 237 | 3.2 | 8.0 | 0.00 | 0.00 | 0.00 | 80 | 1013.1 |
| 20260503000841 | 3 | 226 | 3.2 | 8.0 | 0.00 | 0.00 | 0.00 | 80 | 1013.0 |
| 20260503000347 | 3 | 259 | 3.2 | 8.0 | 0.00 | 0.00 | 0.00 | 80 | 1012.9 |
| 20260502235840 | 3 | 253 | 3.2 | 8.0 | 0.00 | 0.00 | 0.00 | 79 | 1012.8 |
| 20260502235349 | 3 | 217 | 3.2 | 6.4 | 0.00 | 0.00 | 0.00 | 79 | 1012.8 |
| 20260502234852 | 3 | 205 | 3.2 | 8.0 | 0.00 | 0.00 | 0.00 | 78 | 1012.9 |
| 20260502234338 | 3 | 205 | 3.2 | 12.9 | 0.00 | 0.00 | 0.00 | 78 | 1012.8 |
| 20260502233859 | 3 | 216 | 3.2 | 11.3 | 0.00 | 0.00 | 0.00 | 77 | 1012.7 |
| 20260502233402 | 3 | 227 | 3.2 | 9.7 | 0.00 | 0.00 | 0.00 | 76 | 1012.7 |
| 20260502232846 | 3 | 221 | 3.2 | 9.7 | 0.00 | 0.00 | 0.00 | 76 | 1012.7 |
| 20260502232341 | 3 | 250 | 4.8 | 6.4 | 0.00 | 0.00 | 0.00 | 77 | 1012.7 |
| 20260502231900 | 3 | 232 | 4.8 | 16.1 | 0.00 | 0.00 | 0.00 | 77 | 1012.7 |
| 20260502231415 | 3 | 234 | 4.8 | 16.1 | 0.00 | 0.00 | 0.00 | 77 | 1012.7 |
| 20260502230855 | 3 | 267 | 4.8 | 14.5 | 0.00 | 0.00 | 0.00 | 76 | 1012.7 |
| 20260502230347 | 3 | 219 | 6.4 | 11.3 | 0.00 | 0.00 | 0.00 | 76 | 1012.7 |
| 20260502225836 | 3 | 294 | 1.6 | 16.1 | 0.00 | 0.00 | 0.00 | 76 | 1012.7 |
| 20260502225336 | 3 | 274 | 3.2 | 16.1 | 0.00 | 0.00 | 0.00 | 75 | 1012.8 |
| 20260502224852 | 3 | 240 | 6.4 | 12.9 | 0.00 | 0.00 | 0.00 | 76 | 1012.7 |
| 20260502224353 | 3 | 236 | 4.8 | 11.3 | 0.00 | 0.00 | 0.00 | 74 | 1012.8 |
| 20260502223856 | 3 | 246 | 4.8 | 11.3 | 0.00 | 0.00 | 0.00 | 75 | 1012.9 |
| 20260502223348 | 3 | 210 | 4.8 | 11.3 | 0.00 | 0.00 | 0.00 | 75 | 1012.9 |
| 20260502222849 | 3 | 217 | 3.2 | 9.7 | 0.00 | 0.00 | 0.00 | 74 | 1012.8 |
| 20260502222344 | 3 | 234 | 3.2 | 8.0 | 0.00 | 0.00 | 0.00 | 74 | 1012.6 |
| 20260502221845 | 3 | 243 | 3.2 | 8.0 | 0.00 | 0.00 | 0.00 | 74 | 1012.7 |
| 20260502221343 | 3 | 90 | 3.2 | 11.3 | 0.00 | 0.00 | 0.00 | 73 | 1012.7 |
| 20260502220846 | 3 | 327 | 3.2 | 11.3 | 0.00 | 0.00 | 0.00 | 73 | 1012.6 |
| 20260502215833 | 3 | 240 | 1.6 | 8.0 | 0.00 | 0.03 | 0.00 | 71 | 1012.5 |
| 20260502215356 | 3 | 273 | 3.2 | 8.0 | 0.00 | 0.03 | 0.00 | 71 | 1012.5 |
| 20260502214853 | 3 | 219 | 4.8 | 8.0 | 0.00 | 0.03 | 0.00 | 71 | 1012.4 |
| 20260502214336 | 3 | 224 | 3.2 | 8.0 | 0.00 | 0.03 | 0.00 | 72 | 1012.5 |
| 20260502213836 | 3 | 153 | 3.2 | 9.7 | 0.00 | 0.03 | 0.00 | 70 | 1012.5 |
| 20260502213352 | 4 | 232 | 4.8 | 12.9 | 0.00 | 0.03 | 0.00 | 71 | 1012.5 |
| 20260502212855 | 4 | 190 | 1.6 | 12.9 | 0.00 | 0.03 | 0.00 | 71 | 1012.5 |
| 20260502212411 | 4 | 229 | 3.2 | 6.4 | 0.00 | 0.03 | 0.00 | 70 | 1012.5 |
| 20260502211845 | 4 | 348 | 1.6 | 11.3 | 0.00 | 0.03 | 0.00 | 69 | 1012.5 |
| 20260502211344 | 4 | 253 | 3.2 | 19.3 | 0.00 | 0.03 | 0.00 | 70 | 1012.4 |
| 20260502210837 | 4 | 223 | 4.8 | 19.3 | 0.00 | 0.03 | 0.00 | 69 | 1012.4 |
| 20260502210336 | 4 | 204 | 3.2 | 8.0 | 0.00 | 0.03 | 0.00 | 69 | 1012.3 |
| 20260502205843 | 4 | 183 | 1.6 | 12.9 | 0.00 | 0.05 | 0.00 | 68 | 1012.4 |
| 20260502205346 | 5 | 339 | 3.2 | 12.9 | 0.00 | 0.05 | 0.00 | 67 | 1012.3 |
| 20260502204848 | 5 | 217 | 3.2 | 11.3 | 0.00 | 0.05 | 0.00 | 66 | 1012.3 |
| 20260502204340 | 5 | 235 | 3.2 | 9.7 | 0.00 | 0.05 | 0.00 | 70 | 1012.3 |
| 20260502203836 | 5 | 297 | 3.2 | 12.9 | 0.00 | 0.05 | 0.00 | 68 | 1012.3 |
| 20260502203336 | 6 | 239 | 4.8 | 14.5 | 0.00 | 0.05 | 0.00 | 67 | 1012.2 |
| 20260502202845 | 6 | 15 | 6.4 | 14.5 | 0.00 | 0.05 | 0.00 | 68 | 1012.1 |
| 20260502202345 | 5 | 336 | 3.2 | 12.9 | 0.00 | 0.05 | 0.00 | 66 | 1012.2 |
| 20260502201840 | 5 | 194 | 3.2 | 12.9 | 0.00 | 0.05 | 0.00 | 67 | 1012.3 |
| 20260502201356 | 5 | 158 | 4.8 | 14.5 | 0.00 | 0.05 | 0.00 | 64 | 1012.3 |
| 20260502200834 | 5 | 259 | 6.4 | 11.3 | 0.00 | 0.05 | 0.00 | 64 | 1012.3 |
| 20260502200334 | 6 | 155 | 1.6 | 14.5 | 0.00 | 0.05 | 0.00 | 65 | 1012.4 |
| 20260502195850 | 6 | 330 | 4.8 | 14.5 | 0.00 | 0.08 | 0.00 | 62 | 1012.4 |
| 20260502195338 | 5 | 9 | 3.2 | 8.0 | 0.00 | 0.08 | 0.00 | 64 | 1012.5 |
| 20260502194839 | 5 | 265 | 3.2 | 9.7 | 0.00 | 0.08 | 0.00 | 64 | 1012.7 |
| 20260502194400 | 5 | 151 | 4.8 | 11.3 | 0.00 | 0.08 | 0.00 | 64 | 1012.7 |
| 20260502193902 | 6 | 286 | 4.8 | 11.3 | 0.00 | 0.08 | 0.00 | 60 | 1012.6 |
| 20260502193352 | 6 | 249 | 4.8 | 11.3 | 0.00 | 0.08 | 0.00 | 67 | 1012.7 |
| 20260502192852 | 5 | 296 | 4.8 | 12.9 | 0.00 | 0.08 | 0.00 | 65 | 1012.9 |
| 20260502192343 | 5 | 313 | 6.4 | 12.9 | 0.00 | 0.08 | 0.00 | 64 | 1012.9 |
| 20260502191843 | 5 | 327 | 3.2 | 17.7 | 0.00 | 0.08 | 0.00 | 65 | 1012.9 |
| 20260502191338 | 5 | 233 | 4.8 | 11.3 | 0.00 | 0.08 | 0.00 | 63 | 1012.9 |
| 20260502190839 | 5 | 22 | 4.8 | 11.3 | 0.00 | 0.08 | 0.00 | 64 | 1012.7 |
| 20260502190343 | 6 | 258 | 4.8 | 16.1 | 0.00 | 0.08 | 0.00 | 61 | 1012.8 |
| 20260502185838 | 5 | 297 | 4.8 | 16.1 | 0.00 | 0.15 | 0.00 | 64 | 1012.9 |